Tracking 31030 objects as of 17-Jul-2025
HD Live streaming from Space Station
objects crossing your sky now

COSMOS 1934

Track COSMOS 1934 now!
10-day predictions
COSMOS 1934 is classified as:


NORAD ID: 18985
Int'l Code: 1988-023A
Perigee: 952.9 km
Apogee: 1,013.0 km
Inclination: 83.0 °
Period: 104.6 minutes
Semi major axis: 7353 km
RCS: 2.9931 m2 (large)
Launch date: March 22, 1988
Source: Commonwealth of Independent States (former USSR) (CIS)
Launch site: PLESETSK MISSILE AND SPACE COMPLEX (PKMTR)
Your satellite tracking list
Your tracking list is empty




NASA's NSSDC Master Catalog

Two Line Element Set (TLE):
1 18985U 88023A   25197.62100254  .00000026  00000-0  11168-4 0  9995
2 18985  82.9546  43.8496 0040917 349.3060  10.7222 13.76646030749838
Source of the keplerian elements: AFSPC